TimeMDT,TemperatureF,Dew PointF,Humidity,Sea Level PressureIn,VisibilityMPH,Wind Direction,Wind SpeedMPH,Gust SpeedMPH,PrecipitationIn,Events,Conditions,WindDirDegrees,DateUTC
12:51 AM,43.0,41.0,93,29.77,8.0,ENE,5.8,-,0.06,Rain,Light Rain,70,2012-10-20 06:51:00
1:00 AM,42.8,41.0,93,29.79,8.0,NE,3.5,-,0.01,Rain,Light Rain,50,2012-10-20 07:00:00
1:35 AM,42.8,41.0,93,29.81,10.0,NW,5.8,-,0.03,Rain,Light Rain,320,2012-10-20 07:35:00
1:51 AM,44.1,42.1,93,29.78,10.0,Calm,Calm,-,0.03,Rain,Light Rain,0,2012-10-20 07:51:00
2:01 AM,42.8,41.0,93,29.81,10.0,Calm,Calm,-,0.00,,Overcast,0,2012-10-20 08:01:00
2:51 AM,43.0,42.1,97,29.78,10.0,ENE,3.5,-,0.00,,Overcast,60,2012-10-20 08:51:00
3:47 AM,41.0,39.2,93,29.79,7.0,NW,3.5,-,N/A,,Scattered Clouds,310,2012-10-20 09:47:00
3:51 AM,41.0,39.0,93,29.78,7.0,Calm,Calm,-,N/A,,Scattered Clouds,0,2012-10-20 09:51:00
4:26 AM,39.2,39.2,100,29.78,2.5,Calm,Calm,-,N/A,,Mostly Cloudy,0,2012-10-20 10:26:00
4:30 AM,39.2,39.2,100,29.78,1.0,Calm,Calm,-,N/A,,Mostly Cloudy,0,2012-10-20 10:30:00
4:33 AM,39.2,39.2,100,29.78,0.5,Calm,Calm,-,N/A,Fog,Fog,0,2012-10-20 10:33:00
4:51 AM,39.0,37.9,96,29.75,0.2,Calm,Calm,-,N/A,Fog,Fog,0,2012-10-20 10:51:00
5:28 AM,37.4,37.4,100,29.77,1.2,Calm,Calm,-,N/A,,Mostly Cloudy,0,2012-10-20 11:28:00
5:32 AM,37.4,37.4,100,29.77,3.0,Calm,Calm,-,N/A,,Mostly Cloudy,0,2012-10-20 11:32:00
5:38 AM,37.4,37.4,100,29.77,9.0,Calm,Calm,-,N/A,,Scattered Clouds,0,2012-10-20 11:38:00
5:51 AM,37.0,36.0,96,29.77,10.0,Calm,Calm,-,N/A,,Mostly Cloudy,0,2012-10-20 11:51:00
5:59 AM,37.4,35.6,93,29.78,2.5,Calm,Calm,-,N/A,,Scattered Clouds,0,2012-10-20 11:59:00
6:04 AM,37.4,35.6,93,29.78,1.0,Calm,Calm,-,N/A,,Scattered Clouds,0,2012-10-20 12:04:00
6:10 AM,37.4,35.6,93,29.78,1.8,Calm,Calm,-,N/A,,Scattered Clouds,0,2012-10-20 12:10:00
6:12 AM,37.4,35.6,93,29.78,3.0,Calm,Calm,-,N/A,,Partly Cloudy,0,2012-10-20 12:12:00
6:51 AM,37.9,37.0,97,29.76,10.0,NNW,4.6,-,N/A,,Overcast,340,2012-10-20 12:51:00
7:51 AM,37.9,37.0,97,29.77,10.0,Calm,Calm,-,N/A,,Scattered Clouds,0,2012-10-20 13:51:00
8:51 AM,37.9,37.0,97,29.78,10.0,Calm,Calm,-,N/A,,Mostly Cloudy,0,2012-10-20 14:51:00
9:51 AM,42.1,36.0,79,29.78,10.0,Calm,Calm,-,N/A,,Overcast,0,2012-10-20 15:51:00
10:51 AM,44.1,33.1,65,29.77,10.0,SSE,6.9,-,N/A,,Overcast,150,2012-10-20 16:51:00
11:51 AM,45.0,32.0,60,29.75,10.0,West,6.9,-,N/A,,Overcast,270,2012-10-20 17:51:00
12:51 PM,46.9,30.0,52,29.75,10.0,SW,9.2,-,N/A,,Overcast,230,2012-10-20 18:51:00
1:51 PM,44.1,36.0,73,29.77,10.0,WNW,11.5,-,0.00,,Overcast,300,2012-10-20 19:51:00
2:08 PM,42.8,33.8,70,29.78,10.0,West,13.8,20.7,N/A,,Mostly Cloudy,270,2012-10-20 20:08:00
4:51 PM,42.1,30.9,65,29.80,10.0,NW,8.1,-,N/A,,Partly Cloudy,310,2012-10-20 22:51:00
5:51 PM,39.9,30.9,70,29.82,10.0,WNW,4.6,-,0.00,,Overcast,290,2012-10-20 23:51:00
6:51 PM,39.9,28.9,65,29.83,10.0,Calm,Calm,-,N/A,,Overcast,0,2012-10-21 00:51:00
7:51 PM,37.9,30.0,73,29.85,10.0,NW,3.5,-,N/A,,Overcast,320,2012-10-21 01:51:00
8:51 PM,36.0,28.0,73,29.86,10.0,Calm,Calm,-,N/A,,Overcast,0,2012-10-21 02:51:00
9:51 PM,34.0,27.0,75,29.85,10.0,NNW,3.5,-,N/A,,Clear,340,2012-10-21 03:51:00
10:51 PM,34.0,24.1,67,29.85,10.0,North,4.6,-,N/A,,Clear,10,2012-10-21 04:51:00
11:51 PM,34.0,23.0,64,29.84,10.0,North,3.5,-,N/A,,Clear,360,2012-10-21 05:51:00